Вернуться в каталог

STARLINK-3881

АктивенСвязьVLEO
NORAD 52472·PAYLOAD·🇺🇸 United States

Запущен May 6, 2022 с Cape Canaveral Space Force Station

Loading…

Ближайшие Пролёты (ближайшие 24 часа)

TLE

СвежийSource: CelesTrak SupGP

Эпоха: Sep 15, 2026, 02:13 UTC

1 52472C 22049X   26258.09284722  .00008901  00000+0  27006-3 0  2587
2 52472  53.1567 279.1243 0001100  93.9798 299.8051 15.33549254    10

Отслеживайте STARLINK-3881 в реальном времени с AllMySat

Download on the App Store